Location: Chandler
(33.3060°N, 111.8410°W)
Time: 06:40:45
(UTC-07:00)

Amateur Radio Satellites - All Passes

Search period start: 25 July 2014 06:10
Search period end: 26 July 2014 06:10
Location: Chandler, 33.3060°N, 111.8410°W

Satellite Date Start Highest point End Downlink Frequencies (MHz)
Time Altitude Azimuth
MaSat-1 25 Jul 06:31:29 06:34:50 17° 55° (NE) 06:38:07 437.345 MHz
STRAND 1 25 Jul 06:37:53 06:43:02 79° 257° (WSW) 06:48:12 ?
Hamsat 25 Jul 06:42:37 06:46:51 60° 284° (WNW) 06:51:06 145.90 MHz
SO-67 25 Jul 06:53:24 06:55:59 19° 96° (E) 06:58:32 435.3500 MHz FM
KITSAT 1 25 Jul 07:00:53 07:08:56 70° 298° (WNW) 07:17:02 435.175 FM
ISS 25 Jul 07:10:46 07:13:35 25° 36° (NE) 07:16:25 145.800 FM
Lituanica SAT-1 25 Jul 07:19:49 07:20:33 11° 231° (SW) 07:21:17 437.275 MHz beacon
Saudisat 1A 25 Jul 07:30:19 07:34:17 33° 113° (ESE) 07:38:16 436.775 MHz
PANSAT 25 Jul 07:41:13 07:44:50 39° 176° (S) 07:48:26 not established
JAS-2 25 Jul 07:46:05 07:51:10 29° 293° (WNW) 07:55:50 435.800 - 435.900 CW/SSB, 435.910 FM
MaSat-1 25 Jul 08:07:25 08:12:38 58° 251° (WSW) 08:17:29 437.345 MHz
SO-67 25 Jul 08:26:34 08:28:53 17° 289° (WNW) 08:31:12 435.3500 MHz FM
UKube-1 25 Jul 08:40:41 08:42:41 13° 94° (E) 08:44:40 145.840 MHz, 145.915 MHz
ISS 25 Jul 08:47:25 08:50:15 25° 230° (SW) 08:53:04 145.800 FM
KITSAT 1 25 Jul 09:01:37 09:05:51 15° 319° (NW) 09:10:06 435.175 FM
HO-68 25 Jul 09:07:18 09:14:10 49° 101° (E) 09:21:00 435.675 MHz FM
Saudisat 1A 25 Jul 09:10:33 09:13:54 21° 308° (NW) 09:17:16 436.775 MHz
PANSAT 25 Jul 09:21:14 09:24:43 33° 189° (S) 09:28:12 not established
Oscar 11 25 Jul 09:28:59 09:32:31 24° 96° (E) 09:36:02 145.825 FM, Beacon 2401.500 USB
UKube-1 25 Jul 10:14:56 10:19:03 42° 287° (WNW) 10:23:08 145.840 MHz, 145.915 MHz
Sapphire 25 Jul 10:16:11 10:21:04 33° 58° (ENE) 10:25:55 437.095 MHz 1200 baud AX-25 AFSK
PCSat 25 Jul 10:49:40 10:55:06 73° 64° (ENE) 11:00:29 145.825 MHz
HO-68 25 Jul 10:55:42 11:01:29 28° 296° (WNW) 11:07:16 435.675 MHz FM
PANSAT 25 Jul 11:02:10 11:04:27 15° 201° (SSW) 11:06:43 not established
Oscar 11 25 Jul 11:05:09 11:08:33 23° 290° (WNW) 11:11:57 145.825 FM, Beacon 2401.500 USB
FUNcube-1 25 Jul 11:14:42 11:18:44 49° 285° (WNW) 11:22:47 145.950 - 145.970 MHz USB
Sapphire 25 Jul 11:59:48 12:04:18 27° 253° (WSW) 12:08:47 437.095 MHz 1200 baud AX-25 AFSK
Oscar 16 25 Jul 12:04:01 12:06:46 15° 65° (ENE) 12:09:32 437.025 USB, Beacon 2401.1428
RS-15 25 Jul 12:18:01 12:27:14 31° 105° (ESE) 12:36:11 29.354 - 29.394 USB, Beacon 29.352 USB
AO-Echo 25 Jul 12:25:57 12:26:38 10° 62° (ENE) 12:27:19 ?
AO-27 25 Jul 12:35:12 12:37:37 13° 64° (ENE) 12:40:01 436.795 MHz FM
PCSat 25 Jul 12:36:13 12:37:48 11° 258° (WSW) 12:39:22 145.825 MHz
Uribyol 2 25 Jul 12:37:07 12:39:54 15° 65° (ENE) 12:42:40 436.500 FM
SO-50 25 Jul 13:00:53 13:05:20 88° 298° (WNW) 13:09:52 436.795 FM
Oscar 19 25 Jul 13:12:48 13:17:53 73° 75° (ENE) 13:22:59 437.125 CW, 437.150 USB
JAS-1B 25 Jul 13:33:33 13:41:18 41° 65° (ENE) 13:50:00 435.800 - 435.900 CW/SSB
Oscar 16 25 Jul 13:40:37 13:45:37 55° 259° (W) 13:50:38 437.025 USB, Beacon 2401.1428
UOSAT-12 25 Jul 13:45:11 13:47:54 16° 108° (ESE) 13:50:39 437.025 FM, 437.400 FM
TMSAT-1 25 Jul 13:51:40 13:55:34 21° 67° (ENE) 13:59:29 436.925 FM
ITAMSAT 1 25 Jul 13:53:06 13:58:20 82° 76° (ENE) 14:03:34 435.822 SSB
AO-Echo 25 Jul 13:59:20 14:04:35 84° 257° (WSW) 14:09:57 ?
AO-27 25 Jul 14:11:21 14:16:31 64° 258° (WSW) 14:21:43 436.795 MHz FM
Gurwin Techsat 1B 25 Jul 14:12:08 14:17:13 48° 73° (ENE) 14:22:18 435.225 FM
Uribyol 2 25 Jul 14:13:43 14:18:50 58° 259° (W) 14:23:58 436.500 FM
RS-15 25 Jul 14:27:43 14:38:46 63° 302° (WNW) 14:49:37 29.354 - 29.394 USB, Beacon 29.352 USB
AO-7 25 Jul 14:51:32 14:58:33 31° 62° (ENE) 15:05:34 29.400 - 29.500 MHz
KITSAT 1 25 Jul 14:59:24 15:06:15 29° 51° (NE) 15:13:03 435.175 FM
UOSAT-12 25 Jul 15:23:15 15:27:37 44° 303° (WNW) 15:32:05 437.025 FM, 437.400 FM
JAS-1B 25 Jul 15:23:44 15:31:31 44° 264° (W) 15:40:29 435.800 - 435.900 CW/SSB
TMSAT-1 25 Jul 15:30:15 15:35:10 39° 261° (W) 15:40:08 436.925 FM
Uosat F 25 Jul 15:53:18 15:58:20 77° 75° (ENE) 16:03:23 435.120 FM
Gurwin Techsat 1B 25 Jul 15:54:02 15:57:22 17° 266° (W) 16:00:43 435.225 FM
JAS-2 25 Jul 16:10:53 16:13:40 12° 59° (ENE) 16:16:24 435.800 - 435.900 CW/SSB, 435.910 FM
OPAL 25 Jul 16:35:41 16:40:46 90° 4° (N) 16:45:54 ?
AO-7 25 Jul 16:42:50 16:50:53 52° 258° (WSW) 16:59:01 29.400 - 29.500 MHz
RS-15 25 Jul 16:47:17 16:53:51 17° 329° (NNW) 17:00:26 29.354 - 29.394 USB, Beacon 29.352 USB
KITSAT 1 25 Jul 16:54:09 17:02:00 57° 249° (WSW) 17:09:48 435.175 FM
Hamsat 25 Jul 17:31:48 17:35:52 54° 75° (ENE) 17:39:56 145.90 MHz
Saudisat 1A 25 Jul 17:39:52 17:44:17 82° 243° (WSW) 17:48:39 436.775 MHz
JAS-2 25 Jul 17:49:41 17:57:30 72° 74° (ENE) 18:05:04 435.800 - 435.900 CW/SSB, 435.910 FM
STRAND 1 25 Jul 18:52:56 18:57:54 50° 100° (E) 19:02:48 ?
SO-67 25 Jul 18:54:28 18:57:55 77° 78° (ENE) 19:01:23 435.3500 MHz FM
HO-68 25 Jul 19:32:34 19:38:03 24° 63° (ENE) 19:43:31 435.675 MHz FM
JAS-2 25 Jul 19:37:29 19:42:51 20° 268° (W) 19:48:09 435.800 - 435.900 CW/SSB, 435.910 FM
Oscar 11 25 Jul 20:22:02 20:23:40 12° 67° (ENE) 20:25:19 145.825 FM, Beacon 2401.500 USB
STRAND 1 25 Jul 20:33:34 20:36:37 16° 294° (WNW) 20:39:40 ?
UKube-1 25 Jul 21:05:53 21:10:15 86° 256° (WSW) 21:14:39 145.840 MHz, 145.915 MHz
HO-68 25 Jul 21:18:13 21:25:14 56° 258° (WSW) 21:32:16 435.675 MHz FM
RS-15 25 Jul 21:22:35 21:31:36 28° 43° (NE) 21:40:46 29.354 - 29.394 USB, Beacon 29.352 USB
SO-50 25 Jul 21:36:43 21:40:50 28° 54° (NE) 21:44:58 436.795 FM
Lituanica SAT-1 25 Jul 21:42:39 21:44:01 16° 130° (SE) 21:45:24 437.275 MHz beacon
MaSat-1 25 Jul 21:54:54 21:58:34 51° 296° (WNW) 22:02:55 437.345 MHz
Oscar 11 25 Jul 21:55:15 21:59:24 48° 260° (W) 22:03:34 145.825 FM, Beacon 2401.500 USB
FUNcube-1 25 Jul 22:06:39 22:11:03 75° 77° (ENE) 22:15:21 145.950 - 145.970 MHz USB
Lituanica SAT-1 25 Jul 23:15:30 23:16:26 12° 324° (NW) 23:17:23 437.275 MHz beacon
SO-50 25 Jul 23:17:14 23:21:18 28° 248° (WSW) 23:25:24 436.795 FM
RS-15 25 Jul 23:34:02 23:45:09 82° 245° (WSW) 23:56:45 29.354 - 29.394 USB, Beacon 29.352 USB
PCSat 25 Jul 23:46:13 23:49:33 17° 104° (ESE) 23:52:53 145.825 MHz
ISS 25 Jul 23:49:37 23:52:56 75° 135° (SE) 23:56:17 145.800 FM
UOSAT-12 25 Jul 23:56:38 00:01:14 49° 58° (ENE) 00:05:44 437.025 FM, 437.400 FM
Sapphire 26 Jul 00:53:17 00:58:39 72° 113° (ESE) 01:04:02 437.095 MHz 1200 baud AX-25 AFSK
PCSat 26 Jul 01:27:13 01:32:28 52° 299° (WNW) 01:37:45 145.825 MHz
JAS-1B 26 Jul 01:27:52 01:32:12 14° 85° (E) 01:36:15 435.800 - 435.900 CW/SSB
ISS 26 Jul 01:28:26 01:30:00 13° 331° (NNW) 01:31:34 145.800 FM
Oscar 19 26 Jul 01:28:54 01:33:39 36° 98° (E) 01:38:23 437.125 CW, 437.150 USB
UOSAT-12 26 Jul 01:38:24 01:40:54 14° 252° (WSW) 01:43:23 437.025 FM, 437.400 FM
RS-15 26 Jul 01:50:25 01:55:52 15° 260° (W) 02:01:27 29.354 - 29.394 USB, Beacon 29.352 USB
Oscar 16 26 Jul 01:56:22 02:01:32 75° 102° (ESE) 02:06:42 437.025 USB, Beacon 2401.1428
ITAMSAT 1 26 Jul 02:10:34 02:15:27 41° 99° (E) 02:20:17 435.822 SSB
AO-Echo 26 Jul 02:11:29 02:16:19 44° 99° (E) 02:20:59 ?
TMSAT-1 26 Jul 02:13:43 02:14:55 11° 91° (E) 02:16:07 436.925 FM
AO-27 26 Jul 02:28:41 02:33:51 66° 102° (ESE) 02:38:58 436.795 MHz FM
Uribyol 2 26 Jul 02:30:40 02:35:49 73° 102° (ESE) 02:40:57 436.500 FM
Gurwin Techsat 1B 26 Jul 02:33:04 02:37:32 27° 96° (E) 02:41:58 435.225 FM
Sapphire 26 Jul 02:39:40 02:42:35 15° 310° (NW) 02:45:32 437.095 MHz 1200 baud AX-25 AFSK
Oscar 19 26 Jul 03:08:49 03:12:43 22° 292° (WNW) 03:16:38 437.125 CW, 437.150 USB
JAS-1B 26 Jul 03:14:38 03:24:05 86° 104° (ESE) 03:32:05 435.800 - 435.900 CW/SSB
Oscar 16 26 Jul 03:38:50 03:40:12 11° 297° (WNW) 03:41:34 437.025 USB, Beacon 2401.1428
OPAL 26 Jul 03:46:45 03:51:42 81° 255° (WSW) 03:56:40 ?
TMSAT-1 26 Jul 03:49:59 03:55:15 71° 285° (WNW) 04:00:30 436.925 FM
ITAMSAT 1 26 Jul 03:50:58 03:54:35 20° 293° (WNW) 03:58:12 435.822 SSB
AO-Echo 26 Jul 03:51:24 03:54:39 17° 294° (WNW) 03:57:50 ?
Uosat F 26 Jul 04:05:42 04:10:12 33° 98° (E) 04:14:40 435.120 FM
AO-27 26 Jul 04:10:35 04:12:44 13° 296° (WNW) 04:14:54 436.795 MHz FM
Gurwin Techsat 1B 26 Jul 04:12:50 04:17:24 30° 290° (WNW) 04:21:58 435.225 FM
Uribyol 2 26 Jul 04:13:03 04:14:37 11° 297° (WNW) 04:16:11 436.500 FM
AO-7 26 Jul 04:48:49 04:57:09 72° 105° (ESE) 05:05:24 29.400 - 29.500 MHz
JAS-1B 26 Jul 05:06:58 05:13:08 20° 304° (WNW) 05:18:51 435.800 - 435.900 CW/SSB
KITSAT 1 26 Jul 05:23:06 05:30:05 33° 107° (ESE) 05:37:05 435.175 FM
Hamsat 26 Jul 05:23:15 05:25:25 14° 93° (E) 05:27:36 145.90 MHz
Lituanica SAT-1 26 Jul 05:29:13 05:30:50 20° 39° (NE) 05:32:27 437.275 MHz beacon
PANSAT 26 Jul 05:36:54 05:40:04 24° 165° (SSE) 05:43:14 not established
Uosat F 26 Jul 05:44:53 05:48:45 23° 292° (WNW) 05:52:38 435.120 FM
